Time,TemperatureF,DewpointF,PressureIn,WindDirection,WindDirectionDegrees,WindSpeedMPH,WindSpeedGustMPH,Humidity,HourlyPrecipIn,Conditions,Clouds,dailyrainin,SoftwareType,DateUTC
2013-07-12 00:04:00,55.2,52.3,29.87,SSW,213,2.0,16.0,90,0.00,,,0.00,WeatherTracker,2013-07-12 07:04:00,
2013-07-12 00:09:00,55.4,52.8,29.87,SW,232,11.0,16.0,91,0.00,,,0.00,WeatherTracker,2013-07-12 07:09:00,
2013-07-12 00:14:00,55.4,52.5,29.87,SW,233,6.0,14.0,90,0.00,,,0.00,WeatherTracker,2013-07-12 07:14:00,
2013-07-12 00:19:00,55.5,52.6,29.87,WSW,244,13.0,17.0,90,0.00,,,0.00,WeatherTracker,2013-07-12 07:19:00,
2013-07-12 00:24:00,55.5,52.6,29.87,SW,225,6.0,17.0,90,0.00,,,0.00,WeatherTracker,2013-07-12 07:24:00,
2013-07-12 00:29:00,55.6,52.7,29.86,SW,229,5.0,18.0,90,0.00,,,0.00,WeatherTracker,2013-07-12 07:29:00,
2013-07-12 00:34:00,55.7,52.8,29.86,SSW,206,5.0,18.0,90,0.00,,,0.00,WeatherTracker,2013-07-12 07:34:00,
2013-07-12 00:39:00,55.5,52.6,29.86,WSW,240,18.0,20.0,90,0.00,,,0.00,WeatherTracker,2013-07-12 07:39:00,
2013-07-12 00:44:00,55.5,52.6,29.86,SSW,199,5.0,20.0,90,0.00,,,0.00,WeatherTracker,2013-07-12 07:44:00,
2013-07-12 00:49:00,55.8,52.9,29.86,West,262,14.0,18.0,90,0.00,,,0.00,WeatherTracker,2013-07-12 07:49:00,
2013-07-12 00:55:00,55.5,52.3,29.86,WSW,249,12.0,18.0,89,0.00,,,0.00,WeatherTracker,2013-07-12 07:55:00,
2013-07-12 01:00:00,55.6,52.4,29.86,WSW,252,8.0,16.0,89,0.00,,,0.00,WeatherTracker,2013-07-12 08:00:00,
2013-07-12 01:05:00,55.7,52.5,29.86,SW,215,9.0,18.0,89,0.00,,,0.00,WeatherTracker,2013-07-12 08:05:00,
2013-07-12 01:10:00,55.6,52.4,29.86,WSW,246,8.0,19.0,89,0.00,,,0.00,WeatherTracker,2013-07-12 08:10:00,
2013-07-12 01:15:00,55.6,52.4,29.86,WSW,243,3.0,19.0,89,0.00,,,0.00,WeatherTracker,2013-07-12 08:15:00,
2013-07-12 01:20:00,55.6,52.4,29.86,WNW,300,2.0,16.0,89,0.00,,,0.00,WeatherTracker,2013-07-12 08:20:00,
2013-07-12 01:25:00,55.6,52.4,29.86,South,188,8.0,16.0,89,0.00,,,0.00,WeatherTracker,2013-07-12 08:25:00,
2013-07-12 01:30:00,55.5,52.0,29.86,SSW,213,7.0,15.0,88,0.00,,,0.00,WeatherTracker,2013-07-12 08:30:00,
2013-07-12 01:35:00,55.6,52.1,29.86,South,180,6.0,15.0,88,0.00,,,0.00,WeatherTracker,2013-07-12 08:35:00,
2013-07-12 01:40:00,55.6,52.1,29.86,South,183,4.0,14.0,88,0.00,,,0.00,WeatherTracker,2013-07-12 08:40:00,
2013-07-12 01:45:00,55.7,52.2,29.86,West,264,5.0,11.0,88,0.00,,,0.00,WeatherTracker,2013-07-12 08:45:00,
2013-07-12 01:50:00,55.7,52.2,29.86,South,177,7.0,14.0,88,0.00,,,0.00,WeatherTracker,2013-07-12 08:50:00,
2013-07-12 01:55:00,55.8,52.3,29.86,South,186,4.0,14.0,88,0.00,,,0.00,WeatherTracker,2013-07-12 08:55:00,
2013-07-12 02:00:00,55.7,52.2,29.85,SSW,205,2.0,14.0,88,0.00,,,0.00,WeatherTracker,2013-07-12 09:00:00,
2013-07-12 02:05:00,55.7,52.2,29.85,SSE,157,5.0,12.0,88,0.00,,,0.00,WeatherTracker,2013-07-12 09:05:00,
2013-07-12 02:10:00,55.6,52.1,29.85,South,179,12.0,12.0,88,0.00,,,0.00,WeatherTracker,2013-07-12 09:10:00,
2013-07-12 02:16:00,55.6,52.1,29.85,South,186,3.0,17.0,88,0.00,,,0.00,WeatherTracker,2013-07-12 09:16:00,
2013-07-12 02:21:00,55.6,52.1,29.85,SSW,204,7.0,17.0,88,0.00,,,0.00,WeatherTracker,2013-07-12 09:21:00,
2013-07-12 02:26:00,55.6,52.1,29.85,West,271,4.0,17.0,88,0.00,,,0.00,WeatherTracker,2013-07-12 09:26:00,
2013-07-12 02:31:00,55.5,52.0,29.85,SSW,205,4.0,17.0,88,0.00,,,0.00,WeatherTracker,2013-07-12 09:31:00,
2013-07-12 02:36:00,55.5,52.3,29.85,SW,229,6.0,13.0,89,0.00,,,0.00,WeatherTracker,2013-07-12 09:36:00,
2013-07-12 02:41:00,55.5,52.3,29.85,SW,214,14.0,19.0,89,0.00,,,0.00,WeatherTracker,2013-07-12 09:41:00,
2013-07-12 02:46:00,55.4,52.2,29.85,SSE,167,6.0,19.0,89,0.00,,,0.00,WeatherTracker,2013-07-12 09:46:00,
2013-07-12 02:51:00,55.4,52.2,29.85,WSW,246,12.0,16.0,89,0.00,,,0.00,WeatherTracker,2013-07-12 09:51:00,
2013-07-12 02:56:00,55.5,52.3,29.85,SW,220,10.0,19.0,89,0.00,,,0.00,WeatherTracker,2013-07-12 09:56:00,
2013-07-12 03:01:00,55.4,52.2,29.85,WSW,240,11.0,19.0,89,0.00,,,0.00,WeatherTracker,2013-07-12 10:01:00,
2013-07-12 03:06:00,55.3,52.1,29.85,SW,234,14.0,20.0,89,0.00,,,0.00,WeatherTracker,2013-07-12 10:06:00,
2013-07-12 03:11:00,55.4,52.2,29.85,WSW,241,10.0,20.0,89,0.00,,,0.00,WeatherTracker,2013-07-12 10:11:00,
2013-07-12 03:16:00,55.3,52.1,29.85,SSW,205,9.0,19.0,89,0.00,,,0.00,WeatherTracker,2013-07-12 10:16:00,
2013-07-12 03:21:00,55.3,52.4,29.85,West,267,16.0,20.0,90,0.00,,,0.00,WeatherTracker,2013-07-12 10:21:00,
2013-07-12 03:26:00,55.2,52.3,29.85,SW,230,18.0,21.0,90,0.00,,,0.00,WeatherTracker,2013-07-12 10:26:00,
2013-07-12 03:31:00,55.3,52.4,29.85,WSW,240,13.0,21.0,90,0.00,,,0.00,WeatherTracker,2013-07-12 10:31:00,
2013-07-12 03:36:00,55.1,52.2,29.85,WSW,237,12.0,21.0,90,0.00,,,0.00,WeatherTracker,2013-07-12 10:36:00,
2013-07-12 03:41:00,55.1,52.2,29.85,WSW,246,17.0,19.0,90,0.00,,,0.00,WeatherTracker,2013-07-12 10:41:00,
2013-07-12 03:47:00,55.1,52.2,29.85,WSW,244,6.0,23.0,90,0.00,,,0.00,WeatherTracker,2013-07-12 10:47:00,
2013-07-12 03:52:00,55.2,52.6,29.85,SW,225,12.0,23.0,91,0.00,,,0.00,WeatherTracker,2013-07-12 10:52:00,
2013-07-12 03:57:00,55.0,52.1,29.85,SW,219,3.0,22.0,90,0.00,,,0.00,WeatherTracker,2013-07-12 10:57:00,
2013-07-12 04:02:00,55.1,52.5,29.85,SW,236,14.0,20.0,91,0.00,,,0.00,WeatherTracker,2013-07-12 11:02:00,
2013-07-12 04:07:00,55.0,52.4,29.85,WSW,242,16.0,20.0,91,0.00,,,0.00,WeatherTracker,2013-07-12 11:07:00,
2013-07-12 04:12:00,55.1,52.5,29.85,WSW,249,13.0,23.0,91,0.00,,,0.00,WeatherTracker,2013-07-12 11:12:00,
2013-07-12 04:17:00,54.9,52.3,29.85,WSW,245,12.0,23.0,91,0.00,,,0.00,WeatherTracker,2013-07-12 11:17:00,
2013-07-12 04:22:00,55.1,52.5,29.85,SW,236,12.0,21.0,91,0.00,,,0.00,WeatherTracker,2013-07-12 11:22:00,
2013-07-12 04:27:00,55.1,52.5,29.85,SSW,205,3.0,21.0,91,0.00,,,0.00,WeatherTracker,2013-07-12 11:27:00,
2013-07-12 04:32:00,55.0,52.4,29.85,WSW,238,15.0,24.0,91,0.00,,,0.00,WeatherTracker,2013-07-12 11:32:00,
2013-07-12 04:37:00,54.9,52.3,29.85,WSW,242,13.0,30.0,91,0.00,,,0.00,WeatherTracker,2013-07-12 11:37:00,
2013-07-12 04:42:00,55.0,52.4,29.85,WSW,240,12.0,30.0,91,0.00,,,0.00,WeatherTracker,2013-07-12 11:42:00,
2013-07-12 04:47:00,55.0,52.4,29.86,South,169,5.0,20.0,91,0.00,,,0.00,WeatherTracker,2013-07-12 11:47:00,
2013-07-12 04:52:00,55.1,52.5,29.86,WSW,254,2.0,24.0,91,0.00,,,0.00,WeatherTracker,2013-07-12 11:52:00,
2013-07-12 04:57:00,55.0,52.4,29.86,WSW,249,10.0,24.0,91,0.00,,,0.00,WeatherTracker,2013-07-12 11:57:00,
2013-07-12 05:02:00,55.1,52.5,29.86,WSW,249,12.0,19.0,91,0.00,,,0.00,WeatherTracker,2013-07-12 12:02:00,
2013-07-12 05:07:00,55.1,52.5,29.86,WSW,246,10.0,21.0,91,0.00,,,0.00,WeatherTracker,2013-07-12 12:07:00,
2013-07-12 05:12:00,55.1,52.5,29.86,WNW,282,11.0,21.0,91,0.00,,,0.00,WeatherTracker,2013-07-12 12:12:00,
2013-07-12 05:17:00,55.1,52.5,29.86,WSW,245,4.0,23.0,91,0.00,,,0.00,WeatherTracker,2013-07-12 12:17:00,
2013-07-12 05:22:00,55.1,52.5,29.86,WNW,294,5.0,23.0,91,0.00,,,0.00,WeatherTracker,2013-07-12 12:22:00,
2013-07-12 05:28:00,55.0,52.4,29.86,WSW,254,8.0,18.0,91,0.00,,,0.00,WeatherTracker,2013-07-12 12:28:00,
2013-07-12 05:33:00,55.0,52.4,29.86,West,261,15.0,17.0,91,0.00,,,0.00,WeatherTracker,2013-07-12 12:33:00,
2013-07-12 05:38:00,55.1,52.8,29.86,WNW,287,7.0,20.0,92,0.00,,,0.00,WeatherTracker,2013-07-12 12:38:00,
2013-07-12 05:43:00,55.0,52.4,29.86,SW,215,7.0,20.0,91,0.00,,,0.00,WeatherTracker,2013-07-12 12:43:00,
2013-07-12 05:48:00,55.0,52.7,29.86,West,269,15.0,21.0,92,0.00,,,0.00,WeatherTracker,2013-07-12 12:48:00,
2013-07-12 05:53:00,54.8,52.5,29.86,West,259,8.0,21.0,92,0.00,,,0.00,WeatherTracker,2013-07-12 12:53:00,
2013-07-12 05:58:00,54.8,52.5,29.86,West,277,9.0,20.0,92,0.00,,,0.00,WeatherTracker,2013-07-12 12:58:00,
2013-07-12 06:03:00,54.8,52.2,29.86,West,259,13.0,17.0,91,0.00,,,0.00,WeatherTracker,2013-07-12 13:03:00,
2013-07-12 06:08:00,54.8,52.2,29.86,WSW,244,6.0,17.0,91,0.00,,,0.00,WeatherTracker,2013-07-12 13:08:00,
2013-07-12 06:13:00,54.9,52.3,29.86,West,278,8.0,24.0,91,0.00,,,0.00,WeatherTracker,2013-07-12 13:13:00,
2013-07-12 06:18:00,55.1,52.5,29.86,West,259,15.0,24.0,91,0.00,,,0.00,WeatherTracker,2013-07-12 13:18:00,
2013-07-12 06:23:00,55.2,52.6,29.86,West,276,12.0,20.0,91,0.00,,,0.00,WeatherTracker,2013-07-12 13:23:00,
2013-07-12 06:28:00,55.1,52.5,29.86,WSW,257,9.0,20.0,91,0.00,,,0.00,WeatherTracker,2013-07-12 13:28:00,
2013-07-12 06:33:00,55.0,52.4,29.87,West,274,15.0,18.0,91,0.00,,,0.00,WeatherTracker,2013-07-12 13:33:00,
2013-07-12 06:38:00,55.0,52.4,29.87,WNW,287,6.0,19.0,91,0.00,,,0.00,WeatherTracker,2013-07-12 13:38:00,
2013-07-12 06:43:00,55.1,52.5,29.87,WSW,253,14.0,19.0,91,0.00,,,0.00,WeatherTracker,2013-07-12 13:43:00,
2013-07-12 06:48:00,55.3,52.7,29.87,WNW,285,12.0,20.0,91,0.00,,,0.00,WeatherTracker,2013-07-12 13:48:00,
2013-07-12 06:53:00,55.3,52.7,29.87,West,269,10.0,20.0,91,0.00,,,0.00,WeatherTracker,2013-07-12 13:53:00,
2013-07-12 06:58:00,55.3,52.7,29.87,WSW,254,15.0,17.0,91,0.00,,,0.00,WeatherTracker,2013-07-12 13:58:00,
2013-07-12 07:03:00,55.2,52.6,29.87,West,267,7.0,18.0,91,0.00,,,0.00,WeatherTracker,2013-07-12 14:03:00,
2013-07-12 07:08:00,55.2,52.6,29.87,WSW,254,11.0,20.0,91,0.00,,,0.00,WeatherTracker,2013-07-12 14:08:00,
2013-07-12 07:13:00,55.4,52.8,29.87,West,276,16.0,20.0,91,0.00,,,0.00,WeatherTracker,2013-07-12 14:13:00,
2013-07-12 07:19:00,55.3,52.7,29.87,West,274,10.0,18.0,91,0.00,,,0.00,WeatherTracker,2013-07-12 14:19:00,
2013-07-12 07:24:00,55.4,52.5,29.87,West,265,6.0,18.0,90,0.00,,,0.00,WeatherTracker,2013-07-12 14:24:00,
2013-07-12 07:29:00,55.4,52.5,29.88,NW,310,10.0,19.0,90,0.00,,,0.00,WeatherTracker,2013-07-12 14:29:00,
2013-07-12 07:34:00,55.4,52.5,29.88,West,271,9.0,19.0,90,0.00,,,0.00,WeatherTracker,2013-07-12 14:34:00,
2013-07-12 07:39:00,55.5,52.6,29.88,WSW,254,9.0,19.0,90,0.00,,,0.00,WeatherTracker,2013-07-12 14:39:00,
2013-07-12 07:44:00,55.6,52.7,29.88,WNW,284,17.0,19.0,90,0.00,,,0.00,WeatherTracker,2013-07-12 14:44:00,
2013-07-12 07:49:00,55.5,52.6,29.88,North,350,5.0,18.0,90,0.00,,,0.00,WeatherTracker,2013-07-12 14:49:00,
2013-07-12 07:54:00,55.7,52.8,29.88,SW,236,12.0,18.0,90,0.00,,,0.00,WeatherTracker,2013-07-12 14:54:00,
2013-07-12 07:59:00,55.5,52.6,29.88,NW,309,5.0,19.0,90,0.00,,,0.00,WeatherTracker,2013-07-12 14:59:00,
2013-07-12 08:04:00,55.2,52.6,29.88,West,260,7.0,19.0,91,0.00,,,0.00,WeatherTracker,2013-07-12 15:04:00,
2013-07-12 08:09:00,55.1,52.5,29.88,WSW,258,12.0,19.0,91,0.00,,,0.00,WeatherTracker,2013-07-12 15:09:00,
2013-07-12 08:14:00,55.0,52.7,29.88,WNW,302,5.0,17.0,92,0.00,,,0.00,WeatherTracker,2013-07-12 15:14:00,
2013-07-12 08:19:00,54.9,52.6,29.88,West,271,11.0,17.0,92,0.00,,,0.00,WeatherTracker,2013-07-12 15:19:00,
2013-07-12 08:24:00,54.9,52.6,29.88,West,263,3.0,17.0,92,0.00,,,0.00,WeatherTracker,2013-07-12 15:24:00,
2013-07-12 08:29:00,54.9,52.6,29.89,WNW,299,3.0,15.0,92,0.00,,,0.00,WeatherTracker,2013-07-12 15:29:00,
2013-07-12 08:34:00,54.9,52.6,29.89,West,279,11.0,15.0,92,0.00,,,0.00,WeatherTracker,2013-07-12 15:34:00,
2013-07-12 08:39:00,54.9,52.6,29.89,West,279,12.0,15.0,92,0.00,,,0.00,WeatherTracker,2013-07-12 15:39:00,
2013-07-12 08:44:00,54.9,52.6,29.89,WSW,257,12.0,16.0,92,0.00,,,0.00,WeatherTracker,2013-07-12 15:44:00,
2013-07-12 08:49:00,54.9,52.6,29.89,NW,321,5.0,20.0,92,0.00,,,0.00,WeatherTracker,2013-07-12 15:49:00,
2013-07-12 08:54:00,55.0,52.7,29.89,NNW,330,3.0,21.0,92,0.00,,,0.00,WeatherTracker,2013-07-12 15:54:00,
2013-07-12 08:59:00,55.2,52.9,29.89,WNW,283,6.0,21.0,92,0.00,,,0.00,WeatherTracker,2013-07-12 15:59:00,
2013-07-12 09:05:00,55.1,52.8,29.89,WNW,292,13.0,18.0,92,0.00,,,0.00,WeatherTracker,2013-07-12 16:05:00,
2013-07-12 09:10:00,55.1,52.8,29.89,West,275,13.0,20.0,92,0.00,,,0.00,WeatherTracker,2013-07-12 16:10:00,
2013-07-12 09:15:00,55.2,52.9,29.89,WNW,298,14.0,21.0,92,0.00,,,0.00,WeatherTracker,2013-07-12 16:15:00,
2013-07-12 09:20:00,55.2,52.9,29.89,WSW,250,12.0,21.0,92,0.00,,,0.00,WeatherTracker,2013-07-12 16:20:00,
2013-07-12 09:25:00,55.3,53.0,29.89,NNW,327,12.0,16.0,92,0.00,,,0.00,WeatherTracker,2013-07-12 16:25:00,
2013-07-12 09:30:00,55.4,53.1,29.89,NW,320,6.0,22.0,92,0.00,,,0.00,WeatherTracker,2013-07-12 16:30:00,
2013-07-12 09:35:00,55.3,53.0,29.89,West,275,10.0,22.0,92,0.00,,,0.00,WeatherTracker,2013-07-12 16:35:00,
2013-07-12 09:40:00,55.2,52.9,29.89,WSW,252,15.0,20.0,92,0.00,,,0.00,WeatherTracker,2013-07-12 16:40:00,
2013-07-12 09:45:00,55.1,52.8,29.89,WNW,284,11.0,20.0,92,0.00,,,0.00,WeatherTracker,2013-07-12 16:45:00,
2013-07-12 09:50:00,55.2,52.9,29.89,West,259,10.0,20.0,92,0.00,,,0.00,WeatherTracker,2013-07-12 16:50:00,
2013-07-12 09:55:00,55.1,52.8,29.89,West,269,10.0,23.0,92,0.00,,,0.00,WeatherTracker,2013-07-12 16:55:00,
2013-07-12 10:00:00,55.2,52.9,29.89,NW,322,5.0,23.0,92,0.00,,,0.00,WeatherTracker,2013-07-12 17:00:00,
2013-07-12 10:05:00,55.1,52.8,29.89,West,267,14.0,18.0,92,0.00,,,0.00,WeatherTracker,2013-07-12 17:05:00,
2013-07-12 10:10:00,55.1,52.8,29.89,WSW,253,12.0,21.0,92,0.00,,,0.00,WeatherTracker,2013-07-12 17:10:00,
2013-07-12 10:15:00,55.1,52.8,29.89,SW,217,16.0,21.0,92,0.00,,,0.00,WeatherTracker,2013-07-12 17:15:00,
2013-07-12 10:20:00,55.1,52.8,29.89,West,272,18.0,27.0,92,0.00,,,0.00,WeatherTracker,2013-07-12 17:20:00,
2013-07-12 10:25:00,55.3,52.7,29.89,West,259,18.0,27.0,91,0.00,,,0.00,WeatherTracker,2013-07-12 17:25:00,
2013-07-12 10:30:00,55.4,53.1,29.89,WSW,250,15.0,22.0,92,0.00,,,0.00,WeatherTracker,2013-07-12 17:30:00,
2013-07-12 10:35:00,55.8,53.2,29.89,WSW,250,14.0,22.0,91,0.00,,,0.00,WeatherTracker,2013-07-12 17:35:00,
2013-07-12 10:41:00,56.1,53.5,29.89,WSW,254,18.0,19.0,91,0.00,,,0.00,WeatherTracker,2013-07-12 17:41:00,
2013-07-12 10:46:00,56.1,53.2,29.89,WNW,296,20.0,21.0,90,0.00,,,0.00,WeatherTracker,2013-07-12 17:46:00,
2013-07-12 10:51:00,56.0,53.1,29.89,West,264,14.0,21.0,90,0.00,,,0.00,WeatherTracker,2013-07-12 17:51:00,
2013-07-12 10:56:00,55.7,52.8,29.89,WSW,239,13.0,20.0,90,0.00,,,0.00,WeatherTracker,2013-07-12 17:56:00,
2013-07-12 11:01:00,55.6,52.7,29.90,West,267,13.0,21.0,90,0.00,,,0.00,WeatherTracker,2013-07-12 18:01:00,
2013-07-12 11:06:00,55.4,52.8,29.90,WSW,254,16.0,21.0,91,0.00,,,0.00,WeatherTracker,2013-07-12 18:06:00,
2013-07-12 11:11:00,55.5,52.9,29.90,West,263,12.0,18.0,91,0.00,,,0.00,WeatherTracker,2013-07-12 18:11:00,
2013-07-12 11:16:00,55.7,53.1,29.90,WNW,301,5.0,17.0,91,0.00,,,0.00,WeatherTracker,2013-07-12 18:16:00,
2013-07-12 11:21:00,55.5,52.9,29.90,WSW,257,17.0,20.0,91,0.00,,,0.00,WeatherTracker,2013-07-12 18:21:00,
2013-07-12 11:27:00,55.5,52.9,29.90,West,264,10.0,20.0,91,0.00,,,0.00,WeatherTracker,2013-07-12 18:27:00,
2013-07-12 11:32:00,55.5,52.9,29.90,SW,232,8.0,18.0,91,0.00,,,0.00,WeatherTracker,2013-07-12 18:32:00,
2013-07-12 11:37:00,55.5,52.9,29.90,NNW,333,7.0,19.0,91,0.00,,,0.00,WeatherTracker,2013-07-12 18:37:00,
2013-07-12 11:42:00,55.6,53.0,29.90,WSW,247,14.0,19.0,91,0.00,,,0.00,WeatherTracker,2013-07-12 18:42:00,
2013-07-12 11:47:00,55.8,53.2,29.90,NW,323,12.0,19.0,91,0.00,,,0.00,WeatherTracker,2013-07-12 18:47:00,
2013-07-12 11:52:00,56.2,53.3,29.90,WSW,249,7.0,19.0,90,0.00,,,0.00,WeatherTracker,2013-07-12 18:52:00,
2013-07-12 11:57:00,56.8,53.9,29.90,WNW,300,10.0,19.0,90,0.00,,,0.00,WeatherTracker,2013-07-12 18:57:00,
2013-07-12 12:02:00,56.7,53.5,29.90,West,272,17.0,18.0,89,0.00,,,0.00,WeatherTracker,2013-07-12 19:02:00,
2013-07-12 12:07:00,56.6,53.7,29.90,NNW,327,10.0,23.0,90,0.00,,,0.00,WeatherTracker,2013-07-12 19:07:00,
2013-07-12 12:12:00,57.1,54.2,29.90,West,265,15.0,23.0,90,0.00,,,0.00,WeatherTracker,2013-07-12 19:12:00,
2013-07-12 12:17:00,57.3,54.1,29.89,WNW,283,5.0,18.0,89,0.00,,,0.00,WeatherTracker,2013-07-12 19:17:00,
2013-07-12 12:22:00,57.6,54.4,29.89,WNW,289,15.0,18.0,89,0.00,,,0.00,WeatherTracker,2013-07-12 19:22:00,
2013-07-12 12:27:00,57.8,54.3,29.89,West,276,9.0,18.0,88,0.00,,,0.00,WeatherTracker,2013-07-12 19:27:00,
2013-07-12 12:32:00,57.9,54.4,29.90,WNW,284,5.0,20.0,88,0.00,,,0.00,WeatherTracker,2013-07-12 19:32:00,
2013-07-12 12:37:00,58.0,54.5,29.90,NW,304,4.0,23.0,88,0.00,,,0.00,WeatherTracker,2013-07-12 19:37:00,
2013-07-12 12:43:00,58.6,54.7,29.90,West,272,11.0,23.0,87,0.00,,,0.00,WeatherTracker,2013-07-12 19:43:00,
2013-07-12 12:48:00,58.6,54.4,29.89,West,267,9.0,23.0,86,0.00,,,0.00,WeatherTracker,2013-07-12 19:48:00,
2013-07-12 12:53:00,59.1,54.9,29.89,West,271,11.0,23.0,86,0.00,,,0.00,WeatherTracker,2013-07-12 19:53:00,
2013-07-12 12:58:00,59.3,54.5,29.89,NW,319,6.0,19.0,84,0.00,,,0.00,WeatherTracker,2013-07-12 19:58:00,
2013-07-12 13:03:00,59.2,54.7,29.88,West,271,7.0,19.0,85,0.00,,,0.00,WeatherTracker,2013-07-12 20:03:00,
2013-07-12 13:08:00,58.7,54.2,29.88,WNW,302,5.0,26.0,85,0.00,,,0.00,WeatherTracker,2013-07-12 20:08:00,
2013-07-12 13:13:00,58.2,53.7,29.88,NW,318,11.0,26.0,85,0.00,,,0.00,WeatherTracker,2013-07-12 20:13:00,
2013-07-12 13:18:00,58.3,54.1,29.88,NW,311,9.0,26.0,86,0.00,,,0.00,WeatherTracker,2013-07-12 20:18:00,
2013-07-12 13:23:00,58.6,54.1,29.88,West,280,15.0,22.0,85,0.00,,,0.00,WeatherTracker,2013-07-12 20:23:00,
2013-07-12 13:28:00,58.7,54.2,29.88,NW,311,5.0,19.0,85,0.00,,,0.00,WeatherTracker,2013-07-12 20:28:00,
2013-07-12 13:33:00,59.2,54.7,29.88,NW,311,14.0,21.0,85,0.00,,,0.00,WeatherTracker,2013-07-12 20:33:00,
2013-07-12 13:38:00,59.6,54.1,29.88,WSW,252,12.0,21.0,82,0.00,,,0.00,WeatherTracker,2013-07-12 20:38:00,
2013-07-12 13:44:00,59.1,53.9,29.88,WNW,290,14.0,21.0,83,0.00,,,0.00,WeatherTracker,2013-07-12 20:44:00,
2013-07-12 13:49:00,59.9,54.7,29.88,NW,310,5.0,17.0,83,0.00,,,0.00,WeatherTracker,2013-07-12 20:49:00,
2013-07-12 13:54:00,60.1,54.6,29.88,NW,324,6.0,15.0,82,0.00,,,0.00,WeatherTracker,2013-07-12 20:54:00,
2013-07-12 13:59:00,59.6,53.4,29.88,WSW,258,5.0,17.0,80,0.00,,,0.00,WeatherTracker,2013-07-12 20:59:00,
2013-07-12 14:04:00,59.8,54.0,29.88,West,277,12.0,18.0,81,0.00,,,0.00,WeatherTracker,2013-07-12 21:04:00,
2013-07-12 14:09:00,59.9,54.1,29.88,WNW,294,10.0,18.0,81,0.00,,,0.00,WeatherTracker,2013-07-12 21:09:00,
2013-07-12 14:14:00,60.2,54.0,29.87,WSW,239,10.0,17.0,80,0.00,,,0.00,WeatherTracker,2013-07-12 21:14:00,
2013-07-12 14:19:00,60.2,54.0,29.87,NW,325,15.0,18.0,80,0.00,,,0.00,WeatherTracker,2013-07-12 21:19:00,
2013-07-12 14:24:00,60.5,54.3,29.87,WNW,292,4.0,18.0,80,0.00,,,0.00,WeatherTracker,2013-07-12 21:24:00,
2013-07-12 14:29:00,60.7,53.8,29.87,WNW,299,13.0,18.0,78,0.00,,,0.00,WeatherTracker,2013-07-12 21:29:00,
2013-07-12 14:34:00,60.4,54.2,29.87,WSW,242,7.0,17.0,80,0.00,,,0.00,WeatherTracker,2013-07-12 21:34:00,
2013-07-12 14:39:00,60.7,54.1,29.87,NW,318,7.0,14.0,79,0.00,,,0.00,WeatherTracker,2013-07-12 21:39:00,
2013-07-12 14:44:00,61.2,54.3,29.86,West,264,11.0,13.0,78,0.00,,,0.00,WeatherTracker,2013-07-12 21:44:00,
2013-07-12 14:49:00,61.1,54.2,29.86,West,264,9.0,16.0,78,0.00,,,0.00,WeatherTracker,2013-07-12 21:49:00,
2013-07-12 14:54:00,61.3,54.0,29.86,WSW,245,2.0,16.0,77,0.00,,,0.00,WeatherTracker,2013-07-12 21:54:00,
2013-07-12 14:59:00,61.1,53.8,29.87,North,350,6.0,14.0,77,0.00,,,0.00,WeatherTracker,2013-07-12 21:59:00,
2013-07-12 15:05:00,60.5,53.6,29.87,West,265,7.0,16.0,78,0.00,,,0.00,WeatherTracker,2013-07-12 22:05:00,
2013-07-12 15:10:00,60.4,53.9,29.87,WNW,298,7.0,16.0,79,0.00,,,0.00,WeatherTracker,2013-07-12 22:10:00,
2013-07-12 15:15:00,61.0,54.1,29.86,NW,306,2.0,13.0,78,0.00,,,0.00,WeatherTracker,2013-07-12 22:15:00,
2013-07-12 15:20:00,61.9,54.6,29.86,WNW,294,6.0,16.0,77,0.00,,,0.00,WeatherTracker,2013-07-12 22:20:00,
2013-07-12 15:25:00,61.7,54.1,29.86,NW,319,4.0,16.0,76,0.00,,,0.00,WeatherTracker,2013-07-12 22:25:00,
2013-07-12 15:30:00,61.4,54.5,29.86,East,89,3.0,10.0,78,0.00,,,0.00,WeatherTracker,2013-07-12 22:30:00,
2013-07-12 15:35:00,61.4,54.1,29.86,South,190,6.0,10.0,77,0.00,,,0.00,WeatherTracker,2013-07-12 22:35:00,
2013-07-12 15:40:00,61.2,53.9,29.86,ESE,121,4.0,11.0,77,0.00,,,0.00,WeatherTracker,2013-07-12 22:40:00,
2013-07-12 15:45:00,61.3,54.7,29.85,East,94,0.0,12.0,79,0.00,,,0.00,WeatherTracker,2013-07-12 22:45:00,
2013-07-12 15:50:00,61.7,54.4,29.85,North,360,2.0,12.0,77,0.00,,,0.00,WeatherTracker,2013-07-12 22:50:00,
2013-07-12 15:55:00,61.6,54.3,29.85,West,281,2.0,11.0,77,0.00,,,0.00,WeatherTracker,2013-07-12 22:55:00,
2013-07-12 16:00:00,61.4,54.1,29.85,WNW,286,6.0,13.0,77,0.00,,,0.00,WeatherTracker,2013-07-12 23:00:00,
2013-07-12 16:05:00,62.0,54.3,29.85,ESE,119,5.0,13.0,76,0.00,,,0.00,WeatherTracker,2013-07-12 23:05:00,
2013-07-12 16:10:00,61.6,54.0,29.85,WSW,252,5.0,10.0,76,0.00,,,0.00,WeatherTracker,2013-07-12 23:10:00,
2013-07-12 16:15:00,61.7,54.1,29.85,West,268,9.0,12.0,76,0.00,,,0.00,WeatherTracker,2013-07-12 23:15:00,
2013-07-12 16:21:00,61.8,54.2,29.85,West,267,6.0,12.0,76,0.00,,,0.00,WeatherTracker,2013-07-12 23:21:00,
2013-07-12 16:26:00,61.3,54.0,29.85,WNW,302,0.0,17.0,77,0.00,,,0.00,WeatherTracker,2013-07-12 23:26:00,
2013-07-12 16:31:00,61.2,53.6,29.84,NNW,340,12.0,19.0,76,0.00,,,0.00,WeatherTracker,2013-07-12 23:31:00,
2013-07-12 16:36:00,60.7,53.8,29.84,NE,51,2.0,19.0,78,0.00,,,0.00,WeatherTracker,2013-07-12 23:36:00,
2013-07-12 16:41:00,61.0,54.1,29.84,NNE,23,10.0,15.0,78,0.00,,,0.00,WeatherTracker,2013-07-12 23:41:00,
2013-07-12 16:46:00,61.2,53.9,29.84,NW,309,10.0,15.0,77,0.00,,,0.00,WeatherTracker,2013-07-12 23:46:00,
2013-07-12 16:51:00,61.2,54.3,29.84,North,11,6.0,21.0,78,0.00,,,0.00,WeatherTracker,2013-07-12 23:51:00,
2013-07-12 16:56:00,61.1,53.8,29.84,SSE,163,1.0,21.0,77,0.00,,,0.00,WeatherTracker,2013-07-12 23:56:00,
2013-07-12 17:01:00,60.5,54.0,29.84,SE,136,5.0,12.0,79,0.00,,,0.00,WeatherTracker,2013-07-13 00:01:00,
2013-07-12 17:06:00,60.0,53.5,29.84,West,281,5.0,16.0,79,0.00,,,0.00,WeatherTracker,2013-07-13 00:06:00,
2013-07-12 17:11:00,60.3,53.8,29.84,West,277,17.0,17.0,79,0.00,,,0.00,WeatherTracker,2013-07-13 00:11:00,
2013-07-12 17:16:00,60.1,53.6,29.83,West,264,10.0,17.0,79,0.00,,,0.00,WeatherTracker,2013-07-13 00:16:00,
2013-07-12 17:21:00,60.0,53.1,29.83,WSW,242,5.0,17.0,78,0.00,,,0.00,WeatherTracker,2013-07-13 00:21:00,
2013-07-12 17:26:00,60.0,53.5,29.83,WSW,248,4.0,14.0,79,0.00,,,0.00,WeatherTracker,2013-07-13 00:26:00,
2013-07-12 17:31:00,60.1,53.2,29.83,South,182,6.0,12.0,78,0.00,,,0.00,WeatherTracker,2013-07-13 00:31:00,
2013-07-12 17:36:00,60.2,53.7,29.83,SSW,207,2.0,11.0,79,0.00,,,0.00,WeatherTracker,2013-07-13 00:36:00,
2013-07-12 17:42:00,60.6,53.7,29.83,SE,146,4.0,8.0,78,0.00,,,0.00,WeatherTracker,2013-07-13 00:42:00,
2013-07-12 17:47:00,60.3,53.4,29.82,WSW,257,8.0,14.0,78,0.00,,,0.00,WeatherTracker,2013-07-13 00:47:00,
2013-07-12 17:52:00,60.4,53.5,29.82,South,174,4.0,14.0,78,0.00,,,0.00,WeatherTracker,2013-07-13 00:52:00,
2013-07-12 17:57:00,60.0,53.1,29.82,SW,229,5.0,11.0,78,0.00,,,0.00,WeatherTracker,2013-07-13 00:57:00,
2013-07-12 18:02:00,59.8,53.3,29.82,SSW,205,6.0,9.0,79,0.00,,,0.00,WeatherTracker,2013-07-13 01:02:00,
2013-07-12 18:07:00,59.6,53.1,29.82,SE,140,4.0,10.0,79,0.00,,,0.00,WeatherTracker,2013-07-13 01:07:00,
2013-07-12 18:12:00,59.7,53.5,29.82,SW,226,0.0,10.0,80,0.00,,,0.00,WeatherTracker,2013-07-13 01:12:00,
2013-07-12 18:17:00,59.5,53.3,29.82,SSE,158,4.0,12.0,80,0.00,,,0.00,WeatherTracker,2013-07-13 01:17:00,
2013-07-12 18:22:00,59.4,53.6,29.82,SSW,198,1.0,12.0,81,0.00,,,0.00,WeatherTracker,2013-07-13 01:22:00,
2013-07-12 18:27:00,59.1,53.3,29.82,SW,217,3.0,9.0,81,0.00,,,0.00,WeatherTracker,2013-07-13 01:27:00,
2013-07-12 18:32:00,58.9,53.1,29.82,West,265,3.0,11.0,81,0.00,,,0.00,WeatherTracker,2013-07-13 01:32:00,
2013-07-12 18:38:00,59.2,53.4,29.82,ESE,107,0.0,11.0,81,0.00,,,0.00,WeatherTracker,2013-07-13 01:38:00,
2013-07-12 18:43:00,59.6,53.4,29.82,SSW,200,3.0,5.0,80,0.00,,,0.00,WeatherTracker,2013-07-13 01:43:00,
2013-07-12 18:48:00,59.4,53.2,29.83,East,90,4.0,5.0,80,0.00,,,0.00,WeatherTracker,2013-07-13 01:48:00,
2013-07-12 18:53:00,59.4,53.2,29.83,North,355,5.0,9.0,80,0.00,,,0.00,WeatherTracker,2013-07-13 01:53:00,
2013-07-12 18:58:00,60.0,53.5,29.83,North,9,7.0,9.0,79,0.00,,,0.00,WeatherTracker,2013-07-13 01:58:00,
2013-07-12 19:03:00,59.9,53.4,29.83,NNW,331,6.0,16.0,79,0.00,,,0.00,WeatherTracker,2013-07-13 02:03:00,
2013-07-12 19:08:00,59.8,52.9,29.83,WNW,286,4.0,16.0,78,0.00,,,0.00,WeatherTracker,2013-07-13 02:08:00,
2013-07-12 19:13:00,59.4,52.9,29.83,WNW,294,3.0,11.0,79,0.00,,,0.00,WeatherTracker,2013-07-13 02:13:00,
2013-07-12 19:18:00,59.2,53.0,29.82,NNE,31,4.0,11.0,80,0.00,,,0.00,WeatherTracker,2013-07-13 02:18:00,
2013-07-12 19:23:00,59.7,53.2,29.82,WNW,300,2.0,10.0,79,0.00,,,0.00,WeatherTracker,2013-07-13 02:23:00,
2013-07-12 19:28:00,59.5,53.3,29.82,North,360,9.0,12.0,80,0.00,,,0.00,WeatherTracker,2013-07-13 02:28:00,
2013-07-12 19:33:00,59.1,53.3,29.82,NNW,346,5.0,12.0,81,0.00,,,0.00,WeatherTracker,2013-07-13 02:33:00,
2013-07-12 19:38:00,58.9,53.1,29.82,North,355,4.0,11.0,81,0.00,,,0.00,WeatherTracker,2013-07-13 02:38:00,
2013-07-12 19:43:00,58.5,52.7,29.82,NNW,334,2.0,10.0,81,0.00,,,0.00,WeatherTracker,2013-07-13 02:43:00,
2013-07-12 19:48:00,58.1,52.3,29.82,NE,52,2.0,9.0,81,0.00,,,0.00,WeatherTracker,2013-07-13 02:48:00,
2013-07-12 19:53:00,58.0,52.5,29.82,NNE,29,0.0,7.0,82,0.00,,,0.00,WeatherTracker,2013-07-13 02:53:00,
2013-07-12 19:58:00,57.9,52.4,29.82,NNE,28,1.0,5.0,82,0.00,,,0.00,WeatherTracker,2013-07-13 02:58:00,
2013-07-12 20:04:00,57.4,52.3,29.82,NNW,346,4.0,4.0,83,0.00,,,0.00,WeatherTracker,2013-07-13 03:04:00,
2013-07-12 20:09:00,56.8,52.0,29.82,South,186,1.0,9.0,84,0.00,,,0.00,WeatherTracker,2013-07-13 03:09:00,
2013-07-12 20:14:00,56.7,51.9,29.82,South,187,0.0,9.0,84,0.00,,,0.00,WeatherTracker,2013-07-13 03:14:00,
2013-07-12 20:19:00,56.6,52.1,29.82,West,278,0.0,4.0,85,0.00,,,0.00,WeatherTracker,2013-07-13 03:19:00,
2013-07-12 20:24:00,56.5,51.7,29.82,NNW,336,4.0,12.0,84,0.00,,,0.00,WeatherTracker,2013-07-13 03:24:00,
2013-07-12 20:29:00,56.3,51.8,29.82,NW,324,8.0,13.0,85,0.00,,,0.00,WeatherTracker,2013-07-13 03:29:00,
2013-07-12 20:34:00,56.3,51.8,29.82,NNW,339,6.0,13.0,85,0.00,,,0.00,WeatherTracker,2013-07-13 03:34:00,
2013-07-12 20:39:00,56.1,51.7,29.82,NNW,345,8.0,15.0,85,0.00,,,0.00,WeatherTracker,2013-07-13 03:39:00,
2013-07-12 20:44:00,55.9,51.8,29.83,North,349,9.0,15.0,86,0.00,,,0.00,WeatherTracker,2013-07-13 03:44:00,
2013-07-12 20:49:00,55.8,51.7,29.83,NW,306,7.0,15.0,86,0.00,,,0.00,WeatherTracker,2013-07-13 03:49:00,
2013-07-12 20:54:00,55.8,51.7,29.83,NNW,337,5.0,15.0,86,0.00,,,0.00,WeatherTracker,2013-07-13 03:54:00,
2013-07-12 20:59:00,55.7,51.9,29.83,NNW,329,7.0,12.0,87,0.00,,,0.00,WeatherTracker,2013-07-13 03:59:00,
2013-07-12 21:01:00,55.6,51.8,29.83,NNW,342,6.0,12.0,87,0.00,,,0.00,WeatherTracker,2013-07-13 04:01:00,
2013-07-12 21:02:00,55.6,51.8,29.83,North,355,9.0,12.0,87,0.00,,,0.00,WeatherTracker,2013-07-13 04:02:00,
2013-07-12 21:03:00,55.6,51.8,29.83,NNW,337,9.0,12.0,87,0.00,,,0.00,WeatherTracker,2013-07-13 04:03:00,
2013-07-12 21:08:00,55.5,51.7,29.83,NNW,331,9.0,17.0,87,0.00,,,0.00,WeatherTracker,2013-07-13 04:08:00,
2013-07-12 21:13:00,55.7,51.9,29.83,NE,49,11.0,17.0,87,0.00,,,0.00,WeatherTracker,2013-07-13 04:13:00,
2013-07-12 21:18:00,55.8,52.0,29.83,NW,311,5.0,14.0,87,0.00,,,0.00,WeatherTracker,2013-07-13 04:18:00,
2013-07-12 21:23:00,55.7,51.9,29.83,NW,315,6.0,15.0,87,0.00,,,0.00,WeatherTracker,2013-07-13 04:23:00,
2013-07-12 21:28:00,55.7,51.9,29.83,NNW,334,11.0,16.0,87,0.00,,,0.00,WeatherTracker,2013-07-13 04:28:00,
2013-07-12 21:33:00,55.7,51.9,29.83,NNW,337,13.0,16.0,87,0.00,,,0.00,WeatherTracker,2013-07-13 04:33:00,
2013-07-12 21:38:00,55.5,51.7,29.83,NNW,347,7.0,17.0,87,0.00,,,0.00,WeatherTracker,2013-07-13 04:38:00,
2013-07-12 21:43:00,55.5,51.7,29.83,NW,315,4.0,17.0,87,0.00,,,0.00,WeatherTracker,2013-07-13 04:43:00,
2013-07-12 21:48:00,55.6,51.8,29.84,NNW,348,4.0,13.0,87,0.00,,,0.00,WeatherTracker,2013-07-13 04:48:00,
2013-07-12 21:53:00,55.6,51.8,29.84,NW,317,3.0,12.0,87,0.00,,,0.00,WeatherTracker,2013-07-13 04:53:00,
2013-07-12 21:58:00,55.6,51.8,29.84,NNW,342,3.0,12.0,87,0.00,,,0.00,WeatherTracker,2013-07-13 04:58:00,
2013-07-12 22:03:00,55.9,52.1,29.84,NW,326,9.0,12.0,87,0.00,,,0.00,WeatherTracker,2013-07-13 05:03:00,
2013-07-12 22:08:00,55.9,52.1,29.84,North,5,2.0,11.0,87,0.00,,,0.00,WeatherTracker,2013-07-13 05:08:00,
2013-07-12 22:13:00,55.8,52.0,29.84,NNE,18,0.0,11.0,87,0.00,,,0.00,WeatherTracker,2013-07-13 05:13:00,
2013-07-12 22:18:00,55.7,51.9,29.84,NE,40,2.0,6.0,87,0.00,,,0.00,WeatherTracker,2013-07-13 05:18:00,
2013-07-12 22:23:00,55.7,52.2,29.84,SE,132,0.0,5.0,88,0.00,,,0.00,WeatherTracker,2013-07-13 05:23:00,
2013-07-12 22:28:00,55.7,52.2,29.84,SE,132,0.0,5.0,88,0.00,,,0.00,WeatherTracker,2013-07-13 05:28:00,
2013-07-12 22:33:00,55.6,52.1,29.84,NE,44,4.0,4.0,88,0.00,,,0.00,WeatherTracker,2013-07-13 05:33:00,
2013-07-12 22:38:00,55.7,52.2,29.84,East,90,1.0,7.0,88,0.00,,,0.00,WeatherTracker,2013-07-13 05:38:00,
2013-07-12 22:43:00,55.8,52.3,29.84,East,88,3.0,7.0,88,0.00,,,0.00,WeatherTracker,2013-07-13 05:43:00,
2013-07-12 22:48:00,55.8,52.3,29.84,North,355,5.0,10.0,88,0.00,,,0.00,WeatherTracker,2013-07-13 05:48:00,
2013-07-12 22:53:00,55.8,52.3,29.84,North,11,0.0,12.0,88,0.00,,,0.00,WeatherTracker,2013-07-13 05:53:00,
2013-07-12 22:58:00,55.8,52.3,29.84,North,10,0.0,12.0,88,0.00,,,0.00,WeatherTracker,2013-07-13 05:58:00,
2013-07-12 23:03:00,56.0,52.5,29.84,ESE,114,1.0,5.0,88,0.00,,,0.00,WeatherTracker,2013-07-13 06:03:00,
2013-07-12 23:08:00,56.1,52.6,29.84,ESE,113,3.0,5.0,88,0.00,,,0.00,WeatherTracker,2013-07-13 06:08:00,
2013-07-12 23:14:00,56.1,52.3,29.84,ESE,113,0.0,4.0,87,0.00,,,0.00,WeatherTracker,2013-07-13 06:14:00,
2013-07-12 23:19:00,56.1,52.3,29.84,ESE,112,0.0,5.0,87,0.00,,,0.00,WeatherTracker,2013-07-13 06:19:00,
2013-07-12 23:24:00,56.0,52.2,29.84,ESE,111,0.0,5.0,87,0.00,,,0.00,WeatherTracker,2013-07-13 06:24:00,
2013-07-12 23:29:00,56.1,52.6,29.84,ESE,113,0.0,1.0,88,0.00,,,0.00,WeatherTracker,2013-07-13 06:29:00,
2013-07-12 23:34:00,56.1,52.6,29.84,ESE,113,0.0,3.0,88,0.00,,,0.00,WeatherTracker,2013-07-13 06:34:00,
2013-07-12 23:39:00,56.1,52.6,29.84,ESE,111,2.0,5.0,88,0.00,,,0.00,WeatherTracker,2013-07-13 06:39:00,
2013-07-12 23:44:00,56.4,52.9,29.84,East,83,4.0,6.0,88,0.00,,,0.00,WeatherTracker,2013-07-13 06:44:00,
2013-07-12 23:49:00,56.3,52.8,29.84,NE,46,1.0,6.0,88,0.00,,,0.00,WeatherTracker,2013-07-13 06:49:00,
2013-07-12 23:54:00,56.3,52.5,29.84,WNW,297,4.0,6.0,87,0.00,,,0.00,WeatherTracker,2013-07-13 06:54:00,
2013-07-12 23:59:00,56.6,52.8,29.84,South,181,5.0,9.0,87,0.00,,,0.00,WeatherTracker,2013-07-13 06:59:00,